Weather History for Lovelock, NV

Change the Weather History Date:

Saturday, December 29, 2012

  Actual Average Record
Temperature  
Mean Temperature 22 °F -  
Max Temperature 28 °F 40 °F 59 °F (1973)
Min Temperature 16 °F 15 °F -19 °F (1988)
Degree Days  
Heating Degree Days 43    
Moisture  
Dew Point 18 °F    
Average Humidity 85    
Maximum Humidity 96    
Minimum Humidity 75    
Precipitation  
Precipitation 0.00 in - - ()
Sea Level Pressure  
Sea Level Pressure 30.15 in    
Wind  
Wind Speed 4 mph (NE)    
Max Wind Speed 7 mph    
Max Gust Speed -    
Visibility 10 miles    
Events Snow    
Averages and records for this station are not official NWS values.
T = Trace of Precipitation, MM = Missing Value Source: NWS Daily Summary

Daily Weather History Graph

Daily Weather History Graph

Search for Another Location

Airport:

Trip Planner

Search our weather history database for the weather conditions in past years. The results will help you decide how hot, cold, wet, or windy it might be!

Date:

Astronomy

Dec. 29, 2012 Rise Set
Actual Time 7:15 AM PST 4:37 PM PST
Civil Twilight 6:45 AM PST 5:08 PM PST
Nautical Twilight 6:11 AM PST 5:42 PM PST
Astronomical Twilight 5:38 AM PST 6:15 PM PST
Moon 6:15 PM PST (12/29) 7:52 AM PST (12/29)
Length of Visible Light 10h 22m
Length of Day
9h 21m
Full, 98% of the Moon is Illuminated
Dec 29
Full
Jan 4
Last Quarter
Jan 11
New
Jan 18
First Quarter
Jan 26
Full

Hourly Weather History & Observations

Time (PST) Temp. Windchill Dew Point Humidity Pressure Visibility Wind Dir Wind Speed Gust Speed Precip Events Conditions
12:53 AM 19.0 °F 11.1 °F 16.0 °F 88% 30.21 in 10.0 mi NNW 5.8 mph - N/A   Overcast
1:53 AM 21.0 °F 13.4 °F 16.0 °F 81% 30.20 in 10.0 mi NNE 5.8 mph - N/A   Overcast
2:53 AM 21.0 °F 12.4 °F 16.0 °F 81% 30.20 in 10.0 mi NNE 6.9 mph - 0.00 in   Overcast
4:53 AM 19.0 °F 10.0 °F 16.0 °F 88% 30.19 in 10.0 mi ENE 6.9 mph - 0.00 in   Overcast
5:53 AM 19.9 °F - 17.1 °F 89% 30.20 in 10.0 mi Calm Calm - N/A   Overcast
6:53 AM 19.9 °F 11.1 °F 17.1 °F 89% 30.21 in 4.0 mi NE 6.9 mph - 0.00 in Snow Light Snow
7:53 AM 16.0 °F 7.4 °F 14.0 °F 92% 30.22 in 6.0 mi North 5.8 mph - 0.00 in   Overcast
8:53 AM 21.0 °F - 18.0 °F 88% 30.21 in 10.0 mi Calm Calm - N/A   Mostly Cloudy
9:34 AM 21.9 °F - 19.0 °F 89% 30.10 in 10.0 mi Calm Calm - N/A   Overcast
9:53 AM 25.0 °F 18.1 °F 18.0 °F 75% 30.20 in 10.0 mi NE 5.8 mph - N/A   Partly Cloudy
10:53 AM 26.1 °F 19.4 °F 19.0 °F 75% 30.18 in 10.0 mi NE 5.8 mph - N/A   Clear
11:53 AM 24.1 °F 18.2 °F 19.0 °F 81% 30.17 in 10.0 mi ESE 4.6 mph - N/A   Mostly Cloudy
12:53 PM 28.0 °F 22.8 °F 21.0 °F 75% 30.12 in 10.0 mi ENE 4.6 mph - N/A   Scattered Clouds
1:53 PM 27.0 °F 19.5 °F 21.0 °F 78% 30.11 in 10.0 mi East 6.9 mph - N/A   Mostly Cloudy
3:53 PM 26.1 °F 21.9 °F 21.0 °F 81% 30.11 in 10.0 mi NNE 3.5 mph - N/A   Overcast
4:33 PM 24.1 °F - 19.9 °F 84% 30.01 in 10.0 mi Calm Calm - N/A   Mostly Cloudy
4:50 PM 24.8 °F - 19.4 °F 80% 30.01 in 10.0 mi Calm Calm - N/A   Scattered Clouds
4:53 PM 24.1 °F - 19.9 °F 84% 30.12 in 10.0 mi Calm Calm - N/A   Scattered Clouds
5:53 PM 19.9 °F 14.9 °F 18.0 °F 92% 30.13 in 10.0 mi East 3.5 mph - N/A   Overcast
6:53 PM 19.9 °F - 18.0 °F 92% 30.13 in 10.0 mi Calm Calm - N/A   Overcast
7:53 PM 19.9 °F - 17.1 °F 89% 30.13 in 10.0 mi Calm Calm - N/A   Overcast
8:53 PM 18.0 °F 12.7 °F 16.0 °F 92% 30.13 in 10.0 mi ESE 3.5 mph - N/A   Overcast
10:53 PM 18.0 °F 9.8 °F 17.1 °F 96% 30.12 in 10.0 mi NW 5.8 mph - N/A   Overcast
11:53 PM 21.0 °F 16.2 °F 19.0 °F 92% 30.11 in 10.0 mi WNW 3.5 mph - N/A   Overcast